KE9LZ Weather Reports


Display with metric or nautical units.
time (UTC)temp
F
wind
direction
speed
MPH
gust
MPH
rain 1hr
in
rain 24hr
in
rain mn
in
humidity
%
barometer
mb
20260504050003 54 29 2.0 5.0 0.00 0.00 0.00 73 1006.8
20260504044003 56 23 4.0 9.0 0.00 0.00 0.00 66 1006.6
20260504043003 57 26 5.0 8.0 0.00 0.00 0.00 60 1006.7
20260504042003 57 36 4.0 12.0 0.00 0.00 0.00 54 1006.7
20260504040003 58 150 2.0 3.0 0.00 0.00 0.00 52 1006.3
20260504034003 59 218 1.0 3.0 0.00 0.00 0.00 50 1006.4
20260504033003 59 156 1.0 5.0 0.00 0.00 0.00 50 1006.4
20260504032003 60 242 1.0 6.0 0.00 0.00 0.00 49 1006.2
20260504031003 60 159 1.0 5.0 0.00 0.00 0.00 49 1006.5
20260504025003 61 195 1.0 5.0 0.00 0.00 0.00 49 1006.4
20260504024003 61 179 2.0 6.0 0.00 0.00 0.00 48 1006.4
20260504023003 62 186 2.0 6.0 0.00 0.00 0.00 48 1006.3
20260504021003 62 176 1.0 3.0 0.00 0.00 0.00 48 1006.3
20260504020003 62 186 1.0 6.0 0.00 0.00 0.00 48 1006.3
20260504015003 63 130 1.0 2.0 0.00 0.00 0.00 48 1006.3
20260504014003 64 161 1.0 6.0 0.00 0.00 0.00 46 1006.1
20260504013003 65 180 1.0 5.0 0.00 0.00 0.00 44 1006.1
20260504012003 65 237 2.0 5.0 0.00 0.00 0.00 43 1006.1
20260504011003 66 250 2.0 8.0 0.00 0.00 0.00 41 1005.9
20260504010003 67 263 5.0 10.0 0.00 0.00 0.00 40 1005.9
20260504005004 67 277 4.0 13.0 0.00 0.00 0.00 39 1005.8
20260504003004 69 283 6.0 14.0 0.00 0.00 0.00 37 1005.9
20260504002003 69 266 7.0 16.0 0.00 0.00 0.00 36 1005.7
20260504001003 70 287 5.0 10.0 0.00 0.00 0.00 37 1005.7
20260504000004 70 236 5.0 12.0 0.00 0.00 0.00 37 1005.5
20260503235003 70 219 7.0 13.0 0.00 0.00 0.00 38 1005.6
20260503234003 68 207 5.0 13.0 0.00 0.00 0.00 46 1005.6
20260503233003 68 194 7.0 16.0 0.00 0.00 0.00 45 1005.5
20260503232003 68 195 5.0 24.0 0.00 0.00 0.00 45 1005.7
20260503231004 69 205 9.0 16.0 0.00 0.00 0.00 44 1005.5
20260503230003 68 187 10.0 18.0 0.00 0.00 0.00 43 1005.8
20260503225003 68 206 10.0 18.0 0.00 0.00 0.00 43 1005.7
20260503224004 68 212 10.0 16.0 0.00 0.00 0.00 43 1006.0
20260503223003 69 197 10.0 18.0 0.00 0.00 0.00 43 1005.7
20260503222004 69 202 11.0 17.0 0.00 0.00 0.00 43 1005.9
20260503221004 70 198 7.0 20.0 0.00 0.00 0.00 42 1005.7
20260503220003 69 205 10.0 18.0 0.00 0.00 0.00 41 1006.0
20260503215003 69 206 8.0 15.0 0.00 0.00 0.00 43 1006.1
20260503214003 68 200 9.0 18.0 0.00 0.00 0.00 44 1006.3
20260503213004 68 188 9.0 17.0 0.00 0.00 0.00 44 1006.6
20260503212004 69 186 12.0 17.0 0.00 0.00 0.00 43 1006.5
20260503211003 68 199 13.0 20.0 0.00 0.00 0.00 43 1006.6
20260503210004 69 195 9.0 17.0 0.00 0.00 0.00 43 1006.7
20260503205003 68 220 12.0 22.0 0.00 0.00 0.00 43 1006.8
20260503204004 68 217 10.0 18.0 0.00 0.00 0.00 43 1007.1
20260503203003 68 203 8.0 24.0 0.00 0.00 0.00 44 1007.3
20260503202003 68 220 13.0 21.0 0.00 0.00 0.00 44 1007.4
20260503201003 67 178 10.0 18.0 0.00 0.00 0.00 44 1007.4
20260503200002 67 196 9.0 22.0 0.00 0.00 0.00 45 1008.0
20260503195003 67 201 11.0 21.0 0.00 0.00 0.00 45 1007.9
20260503193003 66 194 16.0 26.0 0.00 0.00 0.00 46 1008.4
20260503192004 67 203 11.0 24.0 0.00 0.00 0.00 46 1008.4
20260503191003 67 198 12.0 22.0 0.00 0.00 0.00 46 1008.7
20260503190003 66 204 10.0 29.0 0.00 0.00 0.00 48 1008.7
20260503185004 65 212 13.0 23.0 0.00 0.00 0.00 48 1008.8
20260503184003 65 211 12.0 24.0 0.00 0.00 0.00 49 1009.1
20260503183003 64 216 13.0 26.0 0.00 0.00 0.00 52 1009.3
20260503181003 63 209 14.0 29.0 0.00 0.00 0.00 55 1009.6
20260503180004 63 189 9.0 20.0 0.00 0.00 0.00 55 1009.7
20260503174003 63 195 13.0 25.0 0.00 0.00 0.00 55 1010.0
20260503173003 62 203 12.0 26.0 0.00 0.00 0.00 54 1010.4
20260503172003 62 214 10.0 25.0 0.00 0.00 0.00 54 1010.3
20260503171004 62 207 13.0 25.0 0.00 0.00 0.00 54 1010.6
20260503081003 49 180 5.0 8.0 0.00 0.00 0.00 63 1014.4
20260503071004 47 171 4.0 8.0 0.00 0.00 0.00 71 1014.6